Spencer Municipal Airport
Sunday 12:53 PM
Temperature68° (69°/54°)
Dew Point51°
Relative Humidity55
%
Visibility10
mi
Pressure1023.7
mb
Wind DirectionSSE
160°
Wind Speed16
mph
Precipitation Today0.00"

Last 30 Observations

Time PresWx Temp DP Feels RH% Vsby Pressure Ceiling Direction Speed 1h Precip
12:53 PM 68° 51° 55
%
10
mi
1023.7
mb
6,000
ft
SSE
160°
16
mph
0.00"
11:53 AM 68° 51° 55
%
10
mi
1024.4
mb
5,000
ft
SSE
160°
15
mph
0.00"
10:53 AM 66° 52° 61
%
10
mi
1024.7
mb
6,000
ft
ESE
120°
11
mph
0.00"
9:53 AM 66° 54° 65
%
10
mi
1025.4
mb
6,000
ft
SE
130°
10
mph
0.00"
8:53 AM 61° 51° 70
%
10
mi
1025.4
mb
6,000
ft
ESE
120°
9
mph
0.00"
7:53 AM 59° 49° 69
%
10
mi
1025.1
mb
6,000
ft
ESE
110°
6
mph
0.00"
6:53 AM 57° 48° 72
%
10
mi
1024.7
mb
6,500
ft
ESE
110°
7
mph
0.00"
5:53 AM 56° 49° 77
%
10
mi
1024.4
mb
8,000
ft
E
80°
6
mph
0.00"
4:53 AM 55° 48° 77
%
10
mi
1024.1
mb
9,500
ft
ESE
110°
5
mph
0.00"
3:53 AM 55° 47° 74
%
10
mi
1024.1
mb
Calm 0.00"
2:53 AM 55° 48° 77
%
10
mi
1024.4
mb
E
80°
3
mph
0.00"
1:53 AM 56° 49° 77
%
10
mi
1024.4
mb
NE
50°
5
mph
0.00"
12:53 AM 56° 50° 80
%
10
mi
1024.7
mb
NW
320°
3
mph
0.00"
11:53 PM 60° 50° 69
%
10
mi
1024.4
mb
W
280°
5
mph
0.00"
10:53 PM 62° 50° 65
%
10
mi
1024.4
mb
W
270°
5
mph
0.00"
9:53 PM 64° 46° 52
%
10
mi
1023.4
mb
E
80°
6
mph
0.00"
8:53 PM 69° 44° 40
%
10
mi
1023.0
mb
E
80°
3
mph
0.00"
7:53 PM 72° 45° 38
%
10
mi
1023.0
mb
NE
40°
5
mph
0.00"
6:53 PM 74° 43° 33
%
10
mi
1023.0
mb
NE
50°
5
mph
0.00"
5:53 PM 75° 44° 33
%
10
mi
1023.4
mb
Variable 6
mph
0.00"
4:53 PM 75° 44° 33
%
10
mi
1024.1
mb
Calm 0.00"
3:53 PM 74° 42° 32
%
10
mi
1024.1
mb
Calm 0.00"
2:53 PM 74° 43° 33
%
10
mi
1024.4
mb
N
10°
7
mph
0.00"
1:53 PM 74° 43° 33
%
10
mi
1024.7
mb
WNW
290°
8
mph
0.00"
12:53 PM 70° 43° 38
%
10
mi
1025.1
mb
SSE
160°
7
mph
0.00"
11:53 AM 70° 43° 38
%
10
mi
1025.4
mb
E
100°
7
mph
0.00"
10:53 AM 68° 44° 42
%
10
mi
1025.7
mb
ENE
70°
9
mph
0.00"
9:53 AM 67° 45° 45
%
10
mi
1026.1
mb
ENE
70°
7
mph
0.00"
8:53 AM 65° 47° 52
%
10
mi
1026.1
mb
ENE
70°
8
mph
0.00"
7:53 AM 60° 47° 62
%
10
mi
1025.7
mb
NE
40°
5
mph
0.00"